• In Moldova, Republic
  • List of Countries
  • For 7 days
  • Water Temperature
  • Satellite Maps
  • Weather Map
  • Weather Widgets
  • user-avatar
    Login

    Hourly Weather Mayrhofen

    Today, 23 November, Thursday

    Time Temperature Precipitation Wind Pressure Humidity
    00:00 -4°C° 0 mm 3 mps 614 mmHg 81%
    01:00 -4°C° 0 mm 3 mps 614 mmHg 82%
    02:00 -4°C° 0 mm 3 mps 614 mmHg 82%
    03:00 -4°C° 0 mm 3 mps 613 mmHg 82%
    04:00 -4°C° 0 mm 3 mps 613 mmHg 82%
    05:00 -5°C° 0 mm 3 mps 613 mmHg 82%
    06:00 -5°C° 0 mm 3 mps 613 mmHg 81%
    07:00 -5°C° 0 mm 3 mps 613 mmHg 81%
    08:00 -2°C° 0 mm 2 mps 614 mmHg 80%
    09:00 -1°C° 0 mm 2 mps 615 mmHg 80%
    10:00 +2°C° 0 mm 2 mps 615 mmHg 79%
    11:00 +3°C° 0 mm 2 mps 616 mmHg 81%
    12:00 +5°C° 0 mm 1 mps 616 mmHg 83%
    13:00 +6°C° 0 mm 1 mps 616 mmHg 85%
    14:00 +4°C° 0 mm 1 mps 616 mmHg 83%
    15:00 +3°C° 0 mm 1 mps 615 mmHg 82%
    16:00 +2°C° 0 mm 1 mps 615 mmHg 80%
    17:00 +1°C° 0 mm 1 mps 615 mmHg 79%
    18:00 0°C° 0 mm 1 mps 615 mmHg 77%
    19:00 -1°C° 0 mm 1 mps 615 mmHg 76%
    20:00 -1°C° 0 mm 1 mps 616 mmHg 75%
    21:00 -1°C° 0 mm 1 mps 616 mmHg 73%
    22:00 -1°C° 0 mm 1 mps 616 mmHg 72%
    23:00 -1°C° 0 mm 1 mps 616 mmHg 72%

    Tomorrow, 24 November, Friday

    Time Temperature Precipitation Wind Pressure Humidity
    00:00 -2°C° 0 mm 1 mps 616 mmHg 72%
    01:00 -2°C° 0 mm 1 mps 616 mmHg 71%
    02:00 -2°C° 0 mm 1 mps 616 mmHg 72%
    03:00 -4°C° 0 mm 2 mps 616 mmHg 73%
    04:00 -4°C° 0 mm 2 mps 616 mmHg 73%
    05:00 -4°C° 0 mm 2 mps 616 mmHg 74%
    06:00 -4°C° 0 mm 2 mps 616 mmHg 75%
    07:00 -4°C° 0 mm 2 mps 616 mmHg 76%
    08:00 -3°C° 0 mm 2 mps 616 mmHg 76%
    09:00 -1°C° 0 mm 2 mps 616 mmHg 75%
    10:00 +1°C° 0 mm 2 mps 617 mmHg 75%
    11:00 +2°C° 0 mm 2 mps 617 mmHg 76%
    12:00 +3°C° 0 mm 2 mps 617 mmHg 76%
    13:00 +4°C° 0 mm 2 mps 617 mmHg 77%
    14:00 +3°C° 0 mm 2 mps 616 mmHg 78%
    15:00 +2°C° 0 mm 2 mps 616 mmHg 80%
    16:00 +1°C° 0 mm 2 mps 616 mmHg 81%
    17:00 -1°C° 0 mm 2 mps 616 mmHg 82%
    18:00 -1°C° 0 mm 2 mps 616 mmHg 82%
    19:00 -2°C° 0 mm 2 mps 616 mmHg 82%
    20:00 -2°C° 0 mm 2 mps 616 mmHg 83%
    21:00 -2°C° 0 mm 2 mps 616 mmHg 84%
    22:00 -2°C° 0 mm 2 mps 616 mmHg 84%
    23:00 -2°C° 0 mm 2 mps 615 mmHg 86%

    Day after tomorrow, 25 November, Saturday

    Time Temperature Precipitation Wind Pressure Humidity
    00:00 -2°C° 0 mm 2 mps 615 mmHg 87%
    01:00 -3°C° 0 mm 2 mps 615 mmHg 88%
    02:00 -3°C° 0 mm 2 mps 614 mmHg 89%
    03:00 -3°C° 0 mm 2 mps 613 mmHg 90%
    04:00 -5°C° 0 mm 3 mps 613 mmHg 91%
    05:00 -4°C° 0 mm 3 mps 613 mmHg 91%
    06:00 -4°C° 0 mm 3 mps 613 mmHg 91%
    07:00 -2°C° 0 mm 3 mps 612 mmHg 91%
    08:00 -2°C° 0 mm 3 mps 612 mmHg 90%
    09:00 -1°C° 0 mm 3 mps 612 mmHg 89%
    10:00 0°C° 0 mm 3 mps 612 mmHg 88%
    11:00 +1°C° 0.1 mm 3 mps 612 mmHg 89%
    12:00 +1°C° 0.1 mm 3 mps 612 mmHg 89%
    13:00 +3°C° 0.1 mm 2 mps 612 mmHg 89%
    14:00 +2°C° 1.2 mm 2 mps 612 mmHg 91%
    15:00 +2°C° 1.2 mm 1 mps 612 mmHg 94%
    16:00 +2°C° 1.2 mm 1 mps 612 mmHg 96%
    17:00 +2°C° 0.9 mm 1 mps 612 mmHg 96%
    18:00 +1°C° 0.9 mm 1 mps 612 mmHg 96%
    19:00 +1°C° 0.9 mm 1 mps 612 mmHg 97%
    20:00 +1°C° 0.7 mm 1 mps 612 mmHg 96%
    21:00 -2°C° 0.7 mm 2 mps 612 mmHg 96%
    22:00 -2°C° 0.7 mm 2 mps 613 mmHg 95%
    23:00 -3°C° 0.4 mm 2 mps 613 mmHg 95%

    26 November, Sunday

    Time Temperature Precipitation Wind Pressure Humidity
    00:00 -5°C° 0.4 mm 3 mps 613 mmHg 94%
    01:00 -6°C° 0.4 mm 3 mps 614 mmHg 94%
    02:00 -6°C° 0.2 mm 3 mps 614 mmHg 93%
    03:00 -7°C° 0.2 mm 3 mps 614 mmHg 93%
    04:00 -8°C° 0.2 mm 3 mps 614 mmHg 93%
    05:00 -9°C° 0.1 mm 3 mps 614 mmHg 93%
    06:00 -9°C° 0.1 mm 3 mps 614 mmHg 93%
    07:00 -10°C° 0.1 mm 3 mps 614 mmHg 93%
    08:00 -10°C° 0.1 mm 3 mps 615 mmHg 89%
    09:00 -10°C° 0.1 mm 3 mps 615 mmHg 86%
    10:00 -10°C° 0.1 mm 3 mps 615 mmHg 82%
    11:00 -10°C° 0 mm 3 mps 616 mmHg 78%
    12:00 -9°C° 0 mm 3 mps 616 mmHg 74%
    13:00 -9°C° 0 mm 3 mps 616 mmHg 70%
    14:00 -10°C° 0 mm 3 mps 616 mmHg 73%
    15:00 -10°C° 0 mm 3 mps 616 mmHg 77%
    16:00 -12°C° 0 mm 3 mps 616 mmHg 80%
    17:00 -12°C° 0 mm 2 mps 616 mmHg 82%
    18:00 -12°C° 0 mm 2 mps 616 mmHg 84%
    19:00 -13°C° 0 mm 2 mps 616 mmHg 86%
    20:00 -13°C° 0 mm 2 mps 616 mmHg 86%
    21:00 -13°C° 0 mm 2 mps 616 mmHg 85%
    22:00 -14°C° 0 mm 2 mps 616 mmHg 85%
    23:00 -14°C° 0 mm 2 mps 616 mmHg 85%

    27 November, Monday

    Time Temperature Precipitation Wind Pressure Humidity
    00:00 -14°C° 0 mm 2 mps 616 mmHg 85%
    01:00 -14°C° 0 mm 2 mps 616 mmHg 86%
    02:00 -14°C° 0 mm 2 mps 616 mmHg 85%
    03:00 -14°C° 0 mm 2 mps 616 mmHg 85%
    04:00 -13°C° 0 mm 1 mps 616 mmHg 85%
    05:00 -13°C° 0 mm 1 mps 616 mmHg 85%
    06:00 -13°C° 0 mm 1 mps 616 mmHg 84%
    07:00 -13°C° 0 mm 1 mps 616 mmHg 84%
    08:00 -11°C° 0 mm 1 mps 617 mmHg 80%
    09:00 -9°C° 0 mm 1 mps 617 mmHg 77%
    10:00 -8°C° 0 mm 1 mps 618 mmHg 73%
    11:00 -6°C° 0 mm 1 mps 618 mmHg 70%
    12:00 -4°C° 0 mm 1 mps 618 mmHg 67%
    13:00 -3°C° 0 mm 1 mps 618 mmHg 64%
    14:00 -6°C° 0 mm 1 mps 617 mmHg 68%
    15:00 -7°C° 0 mm 1 mps 616 mmHg 73%
    16:00 -8°C° 0 mm 1 mps 616 mmHg 78%
    17:00 -9°C° 0 mm 1 mps 615 mmHg 79%
    18:00 -10°C° 0 mm 1 mps 615 mmHg 80%
    19:00 -11°C° 0 mm 1 mps 615 mmHg 81%
    20:00 -10°C° 0 mm 1 mps 615 mmHg 76%
    21:00 -10°C° 0 mm 1 mps 615 mmHg 72%
    22:00 -10°C° 0 mm 1 mps 615 mmHg 68%
    23:00 -10°C° 0 mm 1 mps 615 mmHg 65%

    28 November, Tuesday

    Time Temperature Precipitation Wind Pressure Humidity
    00:00 -10°C° 0 mm 1 mps 614 mmHg 63%
    01:00 -10°C° 0 mm 2 mps 614 mmHg 61%
    02:00 -9°C° 0 mm 1 mps 614 mmHg 60%
    03:00 -9°C° 0 mm 1 mps 614 mmHg 60%
    04:00 -9°C° 0 mm 1 mps 613 mmHg 59%
    05:00 -9°C° 0 mm 1 mps 613 mmHg 59%
    06:00 -9°C° 0 mm 1 mps 613 mmHg 58%
    07:00 -9°C° 0 mm 1 mps 613 mmHg 58%
    08:00 -8°C° 0 mm 2 mps 613 mmHg 58%
    09:00 -7°C° 0 mm 2 mps 613 mmHg 59%
    10:00 -5°C° 0 mm 2 mps 614 mmHg 59%
    11:00 -4°C° 0 mm 2 mps 613 mmHg 59%
    12:00 -3°C° 0 mm 2 mps 613 mmHg 58%
    13:00 -2°C° 0 mm 2 mps 613 mmHg 58%
    14:00 -3°C° 0 mm 2 mps 612 mmHg 62%
    15:00 -5°C° 0 mm 2 mps 611 mmHg 67%
    16:00 -6°C° 0 mm 2 mps 611 mmHg 72%
    17:00 -7°C° 0 mm 2 mps 610 mmHg 73%
    18:00 -8°C° 0 mm 2 mps 610 mmHg 75%
    19:00 -9°C° 0 mm 2 mps 610 mmHg 76%
    20:00 -9°C° 0 mm 2 mps 609 mmHg 76%
    21:00 -9°C° 0 mm 2 mps 609 mmHg 77%
    22:00 -9°C° 0 mm 2 mps 609 mmHg 77%
    23:00 -9°C° 0 mm 2 mps 609 mmHg 78%
    Show more